[[{"header":{"parameterUnit":"m.s-1","parameterCategory":2,"la1":30.2991,"la2":30.254,"lo1":-89.0895,"lo2":-89.0444,"dy":0.0017,"dx":0.0017,"nx":28,"ny":28,"refTime":"2024-09-02T21:00:00:Z","depth":"0","parameterNumber":2,"parameterNumberName":"U-component_of_CURRENTS"},"data":[0,0,0,0,0,0,0,0,0,0,0,0,0,0,0,0,0,0,0,0,0,0,0,0,0,0,0,0,0,0,0,0,0,0,0,0,0,0,0,0,0,0,0,0,0,0,0,0,0,0,0,0,0,0,0,0,0,0,0.3375,0.3375,0,0.3327,0.3326,0.3325,0.3279,0.3278,0.3278,0.3278,0.3223,0.3222,0.3221,0,0,0,0,0,0,0,0,0,0,0,0,0,0.3436,0.3435,0.3375,0.3375,0.3375,0.3327,0.3326,0.3325,0.3279,0.3278,0.3278,0.3278,0.3223,0.3222,0.322,0,0,0,0,0,0,0,0,0,0,0,0,0,0.3397,0.3434,0.3375,0.3348,0.3346,0.3327,0.3326,0.3325,0.3279,0.3278,0.3278,0.3278,0.3224,0.3222,0.322,0.3216,0,0,0.3215,0.3214,0,0,0,0,0,0,0,0,0.34,0.3395,0.3353,0.335,0.3347,0.3312,0.3328,0.3289,0.3279,0.33,0.3278,0.3278,0.3255,0.325,0.3237,0.3214,0.3211,0.3214,0.3213,0.3213,0.3212,0,0,0,0,0,0,0,0.3402,0.3397,0.3352,0.3353,0.3349,0.3343,0.3336,0.332,0.3277,0.3298,0.3296,0.3297,0.3253,0.3239,0.3235,0.3211,0.3214,0.3213,0.3212,0.3211,0.3275,0.3278,0,0,0,0,0,0,0.3416,0.3399,0.3354,0.3351,0.3377,0.3342,0.3335,0.332,0.3277,0.3272,0.3297,0.3295,0.3242,0.3237,0.3233,0.3293,0.3213,0.3211,0.321,0.3272,0.3276,0.3279,0,0,0,0,0,0,0.3417,0.3411,0.3356,0.3378,0.3371,0.3342,0.3326,0.332,0.3316,0.3277,0.327,0.3302,0.3242,0.3236,0.3244,0.3288,0.321,0.3208,0.3269,0.3273,0.3277,0.337,0,0,0,0,0,0,0.3418,0.3412,0.3412,0.3378,0.337,0.3381,0.3327,0.3319,0.3318,0.3315,0.3279,0.3272,0.3241,0.3247,0.3242,0.3284,0.3207,0.3265,0.3271,0.3276,0.3363,0.3377,0.3388,0,0,0,0,0,0.3421,0.3425,0.3412,0.3407,0.3369,0.3383,0.338,0.3354,0.332,0.3343,0.331,0.3274,0.3278,0.3247,0.3241,0.3283,0.3263,0.3269,0.3276,0.3358,0.3374,0.3388,0,0,0,0,0,0,0.3447,0.342,0.3405,0.3399,0.3409,0.3378,0.339,0.3366,0.3354,0.3344,0.3294,0.3288,0.3316,0.3293,0.326,0.3323,0.3271,0.3276,0.3336,0.3351,0.3363,0.3391,0.3205,0,0,0,0,0,0.3455,0.3453,0.3438,0.344,0.3445,0.3418,0.3418,0.3405,0.3387,0.338,0.3352,0.3333,0.3337,0.3336,0.3332,0.3355,0.3374,0.3387,0.3399,0.341,0.3432,0.3499,0.3519,0.33,0.33,0.3299,0,0,0.3465,0.3452,0.345,0.3447,0.3442,0.3455,0.3417,0.3432,0.3441,0.3377,0.3382,0.3372,0.3354,0.3385,0.3397,0.337,0.3488,0.3418,0.3426,0.3443,0.3508,0.3529,0.3548,0.3304,0.3303,0.3302,0,0,0.3477,0.3477,0.3474,0.3494,0.3502,0.3496,0.3508,0.3492,0.3492,0.3499,0.3466,0.3495,0.3468,0.3487,0.3486,0.357,0.3551,0.3564,0.3645,0.371,0.3728,0.3745,0.3816,0.3838,0.357,0.357,0.3571,0,0.3474,0.3476,0.3484,0.3497,0.351,0.3518,0.3528,0.3543,0.3532,0.3546,0.3518,0.3534,0.3525,0.3581,0.3618,0.3599,0.3628,0.3581,0.3726,0.3742,0.3758,0.3826,0.3849,0.3576,0.3575,0.3575,0.3574,0,0.3485,0.3499,0.3512,0.3522,0.3548,0.3573,0.3595,0.3628,0.362,0.3623,0.3676,0.3674,0.3687,0.3703,0.3681,0.3791,0.3776,0.3732,0.3684,0.3785,0.3851,0.3874,0.3583,0.3581,0.358,0.3578,0,0,0.3409,0.3493,0.3492,0.352,0.3564,0.3584,0.3637,0.3682,0.3722,0.374,0.3788,0.3828,0.3833,0.3838,0.3834,0.3905,0.4049,0.3873,0.3874,0.3939,0.4205,0.4076,0.4087,0.402,0.4024,0.4027,0.4214,0,0.3397,0.3438,0.3476,0.3528,0.3557,0.3611,0.3662,0.3717,0.3759,0.3824,0.3867,0.3914,0.3882,0.3907,0.3973,0.4026,0.4109,0.4004,0.4102,0.4106,0.3974,0.4109,0.3893,0.403,0.4236,0.4239,0.4242,0,0.3368,0.3408,0.345,0.3549,0.3563,0.3594,0.3691,0.3744,0.3858,0.3895,0.3964,0.3994,0.4111,0.4063,0.422,0.4148,0.4198,0.424,0.4246,0.4109,0.4018,0.3959,0.4062,0.3957,0.4276,0.4273,0.4271,0,0.3313,0.3386,0.3424,0.3455,0.3561,0.3591,0.3647,0.3754,0.3831,0.3957,0.4036,0.4125,0.4205,0.4276,0.4341,0.4301,0.4507,0.445,0.4391,0.4382,0.421,0.4178,0.4214,0.4586,0.4586,0.4585,0.4585,0,0.3289,0.3321,0.3404,0.3432,0.3498,0.3566,0.3656,0.3737,0.3868,0.3969,0.4071,0.4171,0.4268,0.4374,0.4405,0.4463,0.4554,0.4448,0.4433,0.4236,0.4206,0.4111,0.4056,0.4592,0.4591,0.4589,0.4588,0,0.3253,0.3297,0.3359,0.3452,0.3481,0.3532,0.3673,0.3751,0.3881,0.4024,0.4078,0.4259,0.4382,0.4458,0.4593,0.4551,0.4475,0.4606,0.4368,0.4319,0.4113,0.407,0.3971,0.3871,0.4587,0.4585,0.4583,0,0.325,0.3275,0.337,0.3412,0.3457,0.3544,0.3612,0.374,0.3822,0.406,0.412,0.431,0.4384,0.4534,0.4501,0.4535,0.4427,0.4365,0.424,0.4109,0.4053,0.3907,0.3821,0.4077,0.4072,0.4067,0.4063,0,0.3259,0.3282,0.3345,0.3425,0.3483,0.3566,0.3655,0.3709,0.3858,0.3969,0.4113,0.4201,0.4337,0.4254,0.4288,0.4285,0.4117,0.4268,0.4203,0.3726,0.3503,0.3393,0.3965,0.4022,0.4026,0.4029,0.4032,0.4033,0.3265,0.3303,0.3367,0.3442,0.3502,0.3536,0.3535,0.362,0.3697,0.3755,0.3956,0.3972,0.4001,0.4002,0.3972,0.3797,0.3846,0.3687,0.3678,0.3569,0.3354,0.3833,0.3806,0.3808,0.3811,0.3813,0.3815,0,0.3244,0.3294,0.3379,0.3415,0.3422,0.3478,0.352,0.3457,0.3427,0.3529,0.3581,0.3547,0.3468,0.3472,0.3362,0.3231,0.3104,0.3163,0.2934,0.2906,0.3406,0.3261,0.3025,0.3025,0.3025,0.3025,0.3025,0.3025,0.3232,0.3271,0.3308,0.3299,0.3309,0.3218,0.3183,0.3109,0.3112,0.2999,0.2934,0.2979,0.3078,0.3034,0.2878,0.2815,0.2645,0.2485,0.2562,0.2929,0.2977,0.3023,0.2877,0.2564,0.2563,0.1919,0.1914,0.191]},{"header":{"parameterUnit":"m.s-1","parameterCategory":2,"la1":30.2991,"la2":30.254,"lo1":-89.0895,"lo2":-89.0444,"dy":0.0017,"dx":0.0017,"nx":28,"ny":28,"refTime":"2024-09-02T21:00:00:Z","depth":"0","parameterNumber":3,"parameterNumberName":"V-component_of_CURRENTS"},"data":[0,0,0,0,0,0,0,0,0,0,0,0,0,0,0,0,0,0,0,0,0,0,0,0,0,0,0,0,0,0,0,0,0,0,0,0,0,0,0,0,0,0,0,0,0,0,0,0,0,0,0,0,0,0,0,0,0,0,0.0166,0.0166,0,0.0143,0.0142,0.0141,0.0087,0.0087,0.0086,0.0085,-0.0008,-0.001,-0.0012,0,0,0,0,0,0,0,0,0,0,0,0,0,0.0142,0.0142,0.0166,0.0166,0.0167,0.0143,0.0142,0.0141,0.0087,0.0087,0.0086,0.0085,-0.0008,-0.001,-0.0012,0,0,0,0,0,0,0,0,0,0,0,0,0,0.0134,0.0143,0.0166,0.0141,0.0139,0.0143,0.0142,0.0141,0.0087,0.0086,0.0086,0.0085,-0.0007,-0.001,-0.0013,-0.0011,0,0,-0.0021,-0.0023,0,0,0,0,0,0,0,0,0.0135,0.0134,0.0144,0.0143,0.014,0.0121,0.0099,0.0088,0.0088,0.0101,0.0085,0.0084,0.0033,0.0026,0.0018,-0.0015,-0.0019,-0.0022,-0.0023,-0.0025,-0.0025,0,0,0,0,0,0,0,0.0135,0.0135,0.0152,0.0145,0.0142,0.0123,0.0121,0.0097,0.0067,0.01,0.0097,0.0103,0.003,0.0021,0.0015,-0.0021,-0.0022,-0.0024,-0.0026,-0.0027,-0.0017,-0.0015,0,0,0,0,0,0,0.0151,0.0136,0.0152,0.0151,0.0141,0.0125,0.0122,0.0124,0.0069,0.0062,0.0104,0.0101,0.0026,0.0018,0.0011,0.0041,-0.0025,-0.0027,-0.0029,-0.0019,-0.0017,-0.0014,0,0,0,0,0,0,0.0151,0.0153,0.0153,0.0147,0.0147,0.0127,0.013,0.0124,0.0117,0.0074,0.0064,0.0103,0.0025,0.0015,-0.0002,0.0035,-0.0029,-0.0031,-0.0021,-0.0018,-0.0015,0.0079,0,0,0,0,0,0,0.015,0.0152,0.0155,0.0148,0.0148,0.0164,0.0131,0.0125,0.0124,0.012,0.007,0.006,0.0023,0.0003,-0.0004,0.003,-0.0033,-0.0024,-0.002,-0.0016,0.0074,0.0085,0.0095,0,0,0,0,0,0.0149,0.0162,0.0155,0.0158,0.0154,0.0166,0.0164,0.0142,0.0126,0.0129,0.0097,0.0061,0.0022,0.0002,-0.0007,0.0027,-0.0026,-0.0021,-0.0017,0.0069,0.0083,0.0095,0,0,0,0,0,0,0.0158,0.0158,0.015,0.0163,0.0169,0.0159,0.0163,0.0151,0.0129,0.0121,0.0073,0.0062,0.0066,0.0036,0.0015,0.0045,-0.0002,0.0001,0.0067,0.0079,0.009,0.013,-0.0036,0,0,0,0,0,0.0163,0.0166,0.0171,0.0182,0.0188,0.0177,0.0178,0.0168,0.0153,0.0142,0.0113,0.0089,0.0079,0.0068,0.005,0.0057,0.0052,0.008,0.009,0.0099,0.0128,0.016,0.0176,0.0,0.0,0.0,0,0,0.0171,0.0172,0.0174,0.0184,0.0183,0.0204,0.0173,0.0184,0.0203,0.0136,0.0144,0.012,0.009,0.0102,0.0102,0.0078,0.0144,0.0105,0.0113,0.0137,0.0167,0.0184,0.0199,0.0003,0.0003,0.0002,0,0,0.0198,0.0191,0.0207,0.0215,0.0226,0.0224,0.0233,0.0232,0.0231,0.0238,0.0206,0.0213,0.0178,0.0184,0.0177,0.0239,0.0199,0.0226,0.031,0.034,0.0355,0.0368,0.037,0.0383,0.0232,0.0232,0.0232,0,0.021,0.0232,0.0215,0.0239,0.0258,0.024,0.0276,0.0275,0.027,0.029,0.0252,0.0264,0.023,0.0277,0.0296,0.0266,0.0262,0.0259,0.0355,0.0368,0.038,0.0379,0.0391,0.0237,0.0236,0.0236,0.0235,0,0.0253,0.0272,0.0287,0.0309,0.0323,0.0352,0.0359,0.0375,0.037,0.0379,0.042,0.0387,0.0403,0.0394,0.0357,0.0435,0.0396,0.0363,0.0323,0.0403,0.0396,0.0408,0.0244,0.0242,0.0241,0.024,0,0,0.0291,0.0314,0.0321,0.0349,0.0368,0.0391,0.0427,0.0475,0.0523,0.0514,0.0587,0.0575,0.0571,0.0566,0.0534,0.0558,0.0622,0.05,0.0499,0.0503,0.0672,0.06,0.0604,0.06,0.0603,0.0605,0.0627,0,0.034,0.0399,0.0396,0.0461,0.05,0.05,0.0546,0.058,0.06,0.0661,0.0661,0.0703,0.0632,0.0649,0.0666,0.0645,0.066,0.0618,0.0593,0.0593,0.052,0.0619,0.0576,0.0589,0.0638,0.064,0.0641,0,0.0397,0.043,0.0499,0.0559,0.0578,0.0608,0.0691,0.0729,0.0797,0.0815,0.0858,0.0857,0.0908,0.0826,0.0843,0.0816,0.076,0.0727,0.0726,0.0641,0.0544,0.052,0.0607,0.0443,0.0659,0.0657,0.0656,0,0.0452,0.051,0.0569,0.0587,0.0645,0.0681,0.0717,0.0783,0.0847,0.0922,0.0985,0.1018,0.1065,0.1016,0.0943,0.0901,0.0948,0.0876,0.0756,0.0748,0.0702,0.0685,0.0634,0.0889,0.0889,0.0889,0.0889,0,0.0518,0.0568,0.0596,0.0632,0.072,0.0736,0.084,0.0877,0.0967,0.1077,0.1073,0.1175,0.1119,0.1131,0.1019,0.0939,0.1006,0.0805,0.077,0.0729,0.0716,0.0559,0.0482,0.089,0.089,0.089,0.089,0,0.0574,0.0591,0.0664,0.0723,0.0747,0.0808,0.0905,0.0989,0.1056,0.1201,0.1239,0.1327,0.1347,0.1257,0.1203,0.1055,0.0871,0.0903,0.0844,0.0802,0.0507,0.0438,0.04,0.0333,0.0785,0.0784,0.0783,0,0.0609,0.065,0.0723,0.0765,0.0789,0.0874,0.0948,0.1024,0.1118,0.1303,0.1391,0.1471,0.1552,0.1435,0.1202,0.1007,0.0861,0.0799,0.071,0.0519,0.0416,0.0378,0.0323,0.0679,0.0677,0.0675,0.0674,0,0.0675,0.0694,0.0745,0.083,0.0898,0.0998,0.1101,0.1192,0.1315,0.1457,0.1653,0.1741,0.164,0.1465,0.1171,0.1006,0.0678,0.0757,0.0599,0.0378,0.03,0.0209,0.061,0.066,0.0662,0.0663,0.0663,0.0664,0.0713,0.0755,0.081,0.0899,0.0986,0.1114,0.1216,0.1347,0.153,0.1751,0.1818,0.1962,0.1668,0.1289,0.1042,0.0533,0.0584,0.0354,0.0301,0.0291,0.0191,0.0545,0.0523,0.0523,0.0524,0.0524,0.0524,0,0.0753,0.08,0.0878,0.0984,0.1095,0.1137,0.1321,0.1447,0.1675,0.186,0.2027,0.1945,0.1553,0.114,0.0478,0.0132,0.0033,-0.0047,-0.0108,-0.0132,0.0215,0.0168,0.002,0.0021,0.0021,0.0021,0.0021,0.0021,0.0769,0.0839,0.0884,0.1057,0.1146,0.1316,0.1434,0.1635,0.1798,0.2019,0.2093,0.213,0.1809,0.0687,-0.0082,-0.0255,-0.0443,-0.0501,-0.0569,-0.0363,-0.033,-0.0298,-0.0361,-0.0617,-0.0618,-0.0899,-0.0902,-0.0905]}],[{"header":{"parameterUnit":"m.s-1","parameterCategory":2,"la1":30.2991,"la2":30.254,"lo1":-89.0895,"lo2":-89.0444,"dy":0.0017,"dx":0.0017,"nx":28,"ny":28,"refTime":"2024-09-02T21:00:00:Z","depth":"2","parameterNumber":2,"parameterNumberName":"U-component_of_CURRENTS"},"data":[0,0,0,0,0,0,0,0,0,0,0,0,0,0,0,0,0,0,0,0,0,0,0,0,0,0,0,0,0,0,0,0,0,0,0,0,0,0,0,0,0,0,0,0,0,0,0,0,0,0,0,0,0,0,0,0,0,0,0.2358,0.2358,0,0.2305,0.2305,0.2304,0.2335,0.2336,0.2338,0.2339,0.2393,0.2393,0.2393,0,0,0,0,0,0,0,0,0,0,0,0,0,0.2424,0.2423,0.2358,0.2358,0.2357,0.2306,0.2305,0.2304,0.2335,0.2336,0.2338,0.234,0.2393,0.2393,0.2393,0,0,0,0,0,0,0,0,0,0,0,0,0,0.2387,0.2423,0.2358,0.2365,0.2365,0.2306,0.2305,0.2304,0.2334,0.2336,0.2339,0.2341,0.2393,0.2393,0.2393,0.2352,0,0,0.2394,0.2394,0,0,0,0,0,0,0,0,0.2389,0.2384,0.2365,0.2365,0.2365,0.2328,0.2348,0.2325,0.2334,0.2347,0.2339,0.2342,0.2379,0.2381,0.2366,0.2354,0.2356,0.2394,0.2394,0.2394,0.2394,0,0,0,0,0,0,0,0.2392,0.2386,0.2338,0.2364,0.2364,0.235,0.2348,0.2343,0.2354,0.2346,0.2348,0.234,0.2381,0.2365,0.2367,0.2357,0.2394,0.2394,0.2394,0.2394,0.2496,0.2498,0,0,0,0,0,0,0.2397,0.2389,0.234,0.2336,0.2382,0.2347,0.2345,0.2338,0.2352,0.2355,0.2338,0.2342,0.2364,0.2367,0.237,0.2461,0.2394,0.2394,0.2394,0.2493,0.2496,0.2499,0,0,0,0,0,0,0.2399,0.2393,0.2342,0.2361,0.2354,0.2344,0.2337,0.2336,0.236,0.2345,0.2351,0.2367,0.2366,0.2369,0.2418,0.2458,0.2394,0.2395,0.249,0.2494,0.2498,0.2554,0,0,0,0,0,0,0.2401,0.2394,0.2395,0.2361,0.2353,0.2363,0.2334,0.2334,0.2349,0.2354,0.2371,0.2375,0.2368,0.2418,0.2419,0.2457,0.2395,0.2487,0.2492,0.2497,0.2549,0.256,0.2569,0,0,0,0,0,0.2404,0.24,0.2395,0.2389,0.2353,0.2365,0.2362,0.236,0.2349,0.2384,0.2391,0.2377,0.245,0.242,0.242,0.246,0.2485,0.2491,0.2496,0.2545,0.2558,0.2568,0,0,0,0,0,0,0.2418,0.2401,0.2396,0.2384,0.24,0.2372,0.2384,0.2377,0.2401,0.2404,0.2396,0.2403,0.2461,0.2457,0.2424,0.2509,0.247,0.2476,0.2507,0.2519,0.2529,0.2541,0.2395,0,0,0,0,0,0.242,0.2426,0.2414,0.2413,0.242,0.2405,0.2406,0.2408,0.2416,0.2428,0.2433,0.2449,0.2474,0.2497,0.2512,0.2548,0.2559,0.2581,0.2591,0.2599,0.2613,0.2686,0.2703,0.2519,0.2518,0.2518,0,0,0.2425,0.2415,0.2419,0.2419,0.242,0.2432,0.2415,0.2432,0.2443,0.2428,0.2457,0.2478,0.2492,0.254,0.2567,0.2549,0.2654,0.2606,0.2613,0.2623,0.2694,0.2711,0.2727,0.2522,0.2522,0.2521,0,0,0.2427,0.2435,0.2436,0.2458,0.2467,0.2467,0.2486,0.2481,0.2493,0.2512,0.2517,0.2573,0.2583,0.2621,0.2634,0.2708,0.27,0.2719,0.2779,0.285,0.2865,0.2879,0.2894,0.2909,0.2728,0.2729,0.2729,0,0.2416,0.2426,0.2445,0.2453,0.2468,0.2492,0.2503,0.2516,0.253,0.2551,0.254,0.2606,0.262,0.2699,0.2734,0.2729,0.2753,0.2726,0.2861,0.2875,0.2888,0.2901,0.2916,0.2732,0.2732,0.2731,0.2731,0,0.2432,0.2438,0.2451,0.2472,0.2498,0.2526,0.2545,0.2583,0.2589,0.2598,0.2674,0.2699,0.2753,0.277,0.2769,0.2884,0.2863,0.2858,0.2825,0.291,0.2917,0.2933,0.2737,0.2736,0.2735,0.2734,0,0,0.2384,0.2443,0.2446,0.2464,0.2513,0.2533,0.2578,0.2628,0.2664,0.2701,0.2758,0.2819,0.2856,0.2878,0.2905,0.297,0.3072,0.2965,0.2967,0.2968,0.3203,0.3068,0.3071,0.31,0.3103,0.3106,0.3161,0,0.238,0.2406,0.2439,0.2479,0.2497,0.2554,0.26,0.2655,0.2692,0.2763,0.2828,0.2894,0.289,0.2938,0.3007,0.307,0.312,0.3055,0.3131,0.3132,0.2994,0.3087,0.2848,0.2868,0.3175,0.3178,0.3179,0,0.2373,0.2394,0.243,0.2489,0.2505,0.2538,0.2631,0.2679,0.2791,0.2819,0.2913,0.2968,0.31,0.3069,0.3214,0.3179,0.3201,0.3226,0.3228,0.3097,0.3027,0.284,0.2884,0.3204,0.3202,0.32,0.3199,0,0.2344,0.2382,0.2418,0.2443,0.252,0.2551,0.2605,0.27,0.2761,0.2883,0.2941,0.3075,0.3156,0.3239,0.3298,0.328,0.3424,0.3396,0.3282,0.327,0.3077,0.3042,0.3483,0.3483,0.3483,0.3483,0.3483,0,0.233,0.236,0.2409,0.2436,0.2489,0.2542,0.2618,0.2684,0.2802,0.2882,0.299,0.3059,0.321,0.3305,0.3342,0.3359,0.3461,0.331,0.3294,0.3085,0.3053,0.3354,0.3338,0.3485,0.3485,0.3484,0.3484,0,0.23,0.2352,0.2387,0.2451,0.248,0.2521,0.2631,0.2665,0.2794,0.2905,0.2962,0.3102,0.3199,0.3304,0.3423,0.339,0.3432,0.3398,0.3114,0.3064,0.3212,0.3199,0.3288,0.3284,0.3281,0.3278,0.3276,0,0.229,0.2293,0.2379,0.2401,0.2432,0.25,0.253,0.2653,0.2693,0.2899,0.2934,0.3087,0.313,0.3241,0.3232,0.326,0.3351,0.3028,0.2943,0.3226,0.3203,0.3194,0.3186,0.2704,0.2697,0.2692,0.2687,0,0.2232,0.2271,0.2305,0.2335,0.2362,0.2415,0.2473,0.2512,0.2655,0.2759,0.2854,0.2925,0.3002,0.2915,0.2948,0.2927,0.3011,0.291,0.3329,0.2777,0.2676,0.2652,0.2664,0.2638,0.2643,0.2646,0.2649,0.2651,0.2172,0.2177,0.2209,0.2243,0.231,0.233,0.2292,0.2335,0.2415,0.2517,0.2658,0.2677,0.2704,0.2614,0.2545,0.2501,0.2695,0.2593,0.261,0.2634,0.2544,0.2442,0.2339,0.2342,0.2345,0.2347,0.235,0,0.2052,0.2094,0.2102,0.2133,0.2153,0.2236,0.2253,0.2174,0.218,0.2289,0.2357,0.22,0.2143,0.219,0.2041,0.2024,0.2011,0.1946,0.1927,0.1978,0.2023,0.1901,0.1527,0.1524,0.1522,0.1519,0,0,0.1997,0.1958,0.1974,0.1986,0.203,0.1964,0.1956,0.1877,0.1904,0.1884,0.1902,0.2048,0.2132,0.181,0.1758,0.1625,0.1786,0.1555,0.222,0.2249,0.2291,0.2404,0.2275,0,0,0,0,0]},{"header":{"parameterUnit":"m.s-1","parameterCategory":2,"la1":30.2991,"la2":30.254,"lo1":-89.0895,"lo2":-89.0444,"dy":0.0017,"dx":0.0017,"nx":28,"ny":28,"refTime":"2024-09-02T21:00:00:Z","depth":"2","parameterNumber":3,"parameterNumberName":"V-component_of_CURRENTS"},"data":[0,0,0,0,0,0,0,0,0,0,0,0,0,0,0,0,0,0,0,0,0,0,0,0,0,0,0,0,0,0,0,0,0,0,0,0,0,0,0,0,0,0,0,0,0,0,0,0,0,0,0,0,0,0,0,0,0,0,0.0048,0.0048,0,0.0029,0.0029,0.0028,-0.0007,-0.0008,-0.0008,-0.0008,-0.0091,-0.0093,-0.0095,0,0,0,0,0,0,0,0,0,0,0,0,0,0.0037,0.0037,0.0048,0.0048,0.0048,0.003,0.0029,0.0028,-0.0007,-0.0008,-0.0008,-0.0008,-0.009,-0.0092,-0.0095,0,0,0,0,0,0,0,0,0,0,0,0,0,0.0029,0.0037,0.0048,0.0031,0.0029,0.003,0.0029,0.0028,-0.0007,-0.0008,-0.0008,-0.0009,-0.009,-0.0092,-0.0095,-0.0102,0,0,-0.0104,-0.0105,0,0,0,0,0,0,0,0,0.0029,0.0029,0.0033,0.0032,0.003,0.0016,-0.0005,-0.0017,-0.0007,0.0003,-0.0008,-0.0009,-0.0058,-0.0064,-0.007,-0.0106,-0.0109,-0.0104,-0.0106,-0.0107,-0.0108,0,0,0,0,0,0,0,0.003,0.0029,0.0036,0.0033,0.0032,0.0019,0.0017,-0.0008,-0.0029,0.0002,0.0,0.0004,-0.006,-0.0068,-0.0073,-0.0111,-0.0104,-0.0106,-0.0108,-0.0109,-0.0149,-0.0148,0,0,0,0,0,0,0.0041,0.003,0.0037,0.0036,0.0033,0.002,0.0018,0.0018,-0.0027,-0.0033,0.0005,0.0003,-0.0062,-0.0069,-0.0076,-0.0078,-0.0107,-0.0109,-0.0111,-0.0149,-0.0148,-0.0148,0,0,0,0,0,0,0.0041,0.0042,0.0038,0.0036,0.0035,0.0022,0.0022,0.0018,0.0011,-0.0023,-0.0031,0.0003,-0.0063,-0.0072,-0.0099,-0.0082,-0.0111,-0.0113,-0.015,-0.0149,-0.0148,-0.0088,0,0,0,0,0,0,0.0041,0.0042,0.0042,0.0037,0.0036,0.0041,0.0023,0.0018,0.0017,0.0014,-0.0028,-0.0036,-0.0064,-0.0095,-0.0102,-0.0086,-0.0115,-0.0151,-0.0149,-0.0148,-0.0091,-0.0085,-0.0081,0,0,0,0,0,0.004,0.0049,0.0042,0.0043,0.0038,0.0042,0.004,0.0026,0.0017,0.0016,-0.0014,-0.0035,-0.0092,-0.0097,-0.0106,-0.009,-0.0151,-0.015,-0.0148,-0.0093,-0.0087,-0.0081,0,0,0,0,0,0,0.0049,0.0047,0.0039,0.0047,0.0045,0.0037,0.0041,0.0031,0.0008,0.0002,-0.0035,-0.0045,-0.006,-0.0084,-0.0089,-0.0097,-0.0122,-0.0122,-0.0077,-0.0071,-0.0065,-0.0034,-0.0118,0,0,0,0,0,0.0052,0.0053,0.0052,0.0057,0.0061,0.0051,0.005,0.0041,0.0025,0.0014,-0.0012,-0.0039,-0.006,-0.0073,-0.0097,-0.0107,-0.0119,-0.01,-0.0094,-0.009,-0.0069,-0.0066,-0.0058,-0.0143,-0.0143,-0.0143,0,0,0.0058,0.0057,0.0057,0.0059,0.0058,0.0069,0.0048,0.0053,0.0058,0.0008,0.0003,-0.0025,-0.0059,-0.0068,-0.0076,-0.0087,-0.0077,-0.0088,-0.0084,-0.0065,-0.0064,-0.0055,-0.0048,-0.0142,-0.0142,-0.0142,0,0,0.008,0.0071,0.0084,0.0086,0.0089,0.0083,0.0087,0.0081,0.0073,0.0062,0.0034,0.0021,-0.0018,-0.0029,-0.0042,-0.0021,-0.005,-0.0032,0.002,0.0023,0.003,0.0037,0.0011,0.0015,-0.0028,-0.0028,-0.0027,0,0.009,0.0104,0.0089,0.0106,0.0117,0.0094,0.0118,0.0106,0.0089,0.0092,0.0067,0.0039,0.0007,0.0012,0.0019,-0.0007,-0.002,-0.0002,0.0031,0.0037,0.0043,0.0015,0.0019,-0.0025,-0.0025,-0.0025,-0.0025,0,0.0127,0.0136,0.0148,0.0159,0.0164,0.018,0.0171,0.0169,0.0155,0.0146,0.0145,0.0105,0.0097,0.0081,0.0054,0.0082,0.0052,0.0036,0.0018,0.0056,0.0023,0.0026,-0.002,-0.0021,-0.0022,-0.0023,0,0,0.0166,0.0173,0.0179,0.0196,0.0197,0.0211,0.0218,0.0229,0.0245,0.0218,0.0249,0.0209,0.0197,0.0183,0.0152,0.0152,0.0166,0.0118,0.0116,0.0098,0.0153,0.0094,0.009,0.0156,0.0157,0.0158,0.0107,0,0.0206,0.0246,0.0238,0.0279,0.0305,0.0289,0.0304,0.0304,0.0291,0.0309,0.0281,0.0288,0.0232,0.0237,0.0229,0.0195,0.0179,0.018,0.0116,0.0114,0.0062,0.0094,0.011,0.0063,0.011,0.011,0.011,0,0.0255,0.0276,0.0324,0.0352,0.0364,0.0379,0.0408,0.0421,0.0425,0.0418,0.0416,0.0391,0.0396,0.0343,0.0298,0.0302,0.0237,0.0195,0.0191,0.0124,0.0061,0.0037,0.0066,0.0114,0.0114,0.0113,0.0113,0,0.0305,0.034,0.0382,0.0393,0.0417,0.0437,0.0452,0.0457,0.0492,0.0499,0.0526,0.0499,0.0512,0.0444,0.0349,0.0332,0.0291,0.0253,0.0127,0.012,0.0117,0.0108,0.0215,0.0215,0.0215,0.0215,0.0215,0,0.0358,0.0393,0.0408,0.0435,0.0495,0.0494,0.0556,0.0557,0.0594,0.0661,0.0599,0.0638,0.0543,0.0501,0.0393,0.0274,0.032,0.0149,0.0115,0.0133,0.0127,0.0162,0.0156,0.0213,0.0214,0.0214,0.0214,0,0.0404,0.0415,0.0469,0.0502,0.0521,0.0567,0.0635,0.068,0.0696,0.0785,0.0804,0.0769,0.07,0.0572,0.0461,0.0336,0.0222,0.0156,0.0167,0.0135,0.0032,0.003,0.0021,0.0018,0.0016,0.0015,0.0013,0,0.0429,0.0461,0.0521,0.0561,0.0578,0.0645,0.0698,0.0734,0.0794,0.0869,0.0925,0.0879,0.0854,0.064,0.0419,0.0207,0.0188,0.0063,0.003,0.005,0.0018,0.0019,0.002,0.0039,0.0038,0.0037,0.0036,0,0.0478,0.0498,0.0538,0.0621,0.0682,0.0769,0.0846,0.0914,0.0983,0.1053,0.1124,0.1112,0.089,0.0678,0.0364,0.0215,0.01,0.0036,0.0087,0.0078,0.0061,0.0031,0.0033,0.0029,0.0029,0.003,0.003,0.0031,0.0511,0.0544,0.06,0.0684,0.0771,0.0888,0.0966,0.1049,0.1171,0.127,0.1252,0.1222,0.0967,0.0555,0.03,0.0021,0.0029,-0.0067,-0.0062,-0.0056,-0.0052,-0.0072,-0.013,-0.013,-0.013,-0.013,-0.013,0,0.0548,0.0587,0.0662,0.0773,0.0884,0.0923,0.1068,0.1142,0.1281,0.1339,0.1374,0.1132,0.0877,0.059,0.0175,-0.0079,-0.0083,-0.0162,-0.0095,-0.0087,-0.008,-0.0075,-0.016,-0.0161,-0.0161,-0.0162,0,0,0.0565,0.0633,0.0673,0.0854,0.0946,0.1095,0.1182,0.1281,0.1344,0.139,0.1368,0.1282,0.0954,0.0646,0.0309,0.0085,0.0054,0.0029,0.0077,0.0202,0.0213,-0.0006,0.0013,0,0,0,0,0]}],[{"header":{"parameterUnit":"m.s-1","parameterCategory":2,"la1":30.2991,"la2":30.254,"lo1":-89.0895,"lo2":-89.0444,"dy":0.0017,"dx":0.0017,"nx":28,"ny":28,"refTime":"2024-09-02T21:00:00:Z","depth":"4","parameterNumber":2,"parameterNumberName":"U-component_of_CURRENTS"},"data":[0,0,0,0,0,0,0,0,0,0,0,0,0,0,0,0,0,0,0,0,0,0,0,0,0,0,0,0,0,0,0,0,0,0,0,0,0,0,0,0,0,0,0,0,0,0,0,0,0,0,0,0,0,0,0,0,0,0,0.1126,0.1127,0,0.1218,0.1219,0.122,0.1266,0.1266,0.1266,0.1266,0.1341,0.1343,0.1344,0,0,0,0,0,0,0,0,0,0,0,0,0,0.1024,0.1025,0.1126,0.1128,0.1129,0.1218,0.1219,0.122,0.1266,0.1266,0.1266,0.1266,0.134,0.1342,0.1345,0,0,0,0,0,0,0,0,0,0,0,0,0,0.1086,0.1026,0.1126,0.1163,0.1168,0.1218,0.1219,0.1221,0.1266,0.1266,0.1266,0.1266,0.1339,0.1342,0.1345,0.1357,0,0,0.1353,0.1354,0,0,0,0,0,0,0,0,0.1082,0.1089,0.1157,0.1161,0.1166,0.1232,0.1211,0.1266,0.1266,0.1227,0.1266,0.1266,0.1304,0.131,0.1324,0.1361,0.1364,0.1354,0.1355,0.1356,0.1357,0,0,0,0,0,0,0,0.1078,0.1086,0.1161,0.1158,0.1164,0.1188,0.1196,0.1222,0.1261,0.123,0.1234,0.1247,0.1306,0.1321,0.1326,0.1365,0.1353,0.1356,0.1358,0.1359,0.1482,0.1484,0,0,0,0,0,0,0.1068,0.1081,0.1158,0.1164,0.1126,0.1189,0.1199,0.1209,0.1261,0.127,0.1247,0.1249,0.1316,0.1323,0.1329,0.141,0.1356,0.1359,0.1361,0.148,0.1482,0.1484,0,0,0,0,0,0,0.1065,0.1074,0.1154,0.1126,0.1138,0.1191,0.1202,0.1211,0.126,0.1274,0.1283,0.129,0.1317,0.1325,0.1376,0.1411,0.136,0.1363,0.1479,0.1481,0.1483,0.1531,0,0,0,0,0,0,0.1062,0.1072,0.1104,0.1125,0.114,0.12,0.1203,0.1213,0.1266,0.127,0.1314,0.1319,0.1318,0.1372,0.1379,0.1413,0.1365,0.1476,0.148,0.1483,0.1527,0.1535,0.1541,0,0,0,0,0,0.1058,0.1082,0.1105,0.1116,0.1172,0.1201,0.1211,0.1247,0.1268,0.1292,0.1323,0.1319,0.1396,0.1376,0.1383,0.1419,0.1475,0.1479,0.1482,0.1524,0.1533,0.1541,0,0,0,0,0,0,0.1059,0.109,0.1115,0.1152,0.1186,0.121,0.1243,0.1269,0.1315,0.1332,0.1342,0.1349,0.1408,0.1409,0.1386,0.1464,0.1435,0.144,0.1464,0.1473,0.148,0.1484,0.1367,0,0,0,0,0,0.1074,0.1096,0.1133,0.1165,0.1185,0.1225,0.1253,0.128,0.1311,0.1334,0.1357,0.1389,0.1425,0.1445,0.1471,0.1515,0.1517,0.1543,0.155,0.1555,0.1565,0.1608,0.1619,0.1496,0.1496,0.1496,0,0,0.1073,0.1105,0.1114,0.1168,0.1198,0.1229,0.1242,0.1291,0.1324,0.1334,0.139,0.1419,0.1444,0.1492,0.1517,0.1499,0.1589,0.156,0.1565,0.1571,0.1613,0.1625,0.1636,0.1499,0.1498,0.1498,0,0,0.1082,0.1123,0.1147,0.1177,0.1239,0.126,0.1282,0.1326,0.1359,0.1417,0.1433,0.1484,0.1531,0.1552,0.157,0.1634,0.1628,0.1646,0.1682,0.1724,0.1734,0.1743,0.1745,0.1754,0.1644,0.1644,0.1645,0,0.1094,0.1131,0.116,0.1197,0.1228,0.1275,0.131,0.1345,0.1402,0.1436,0.1442,0.1537,0.156,0.162,0.1645,0.165,0.1661,0.1646,0.1732,0.1741,0.175,0.175,0.176,0.1647,0.1647,0.1647,0.1646,0,0.1116,0.1158,0.1173,0.1231,0.1267,0.1305,0.1351,0.1397,0.1447,0.1485,0.1568,0.1602,0.166,0.1675,0.1685,0.176,0.1743,0.1739,0.1709,0.1765,0.1762,0.1771,0.1651,0.165,0.1649,0.1649,0,0,0.1111,0.1176,0.1188,0.1218,0.1293,0.1316,0.1379,0.1447,0.1497,0.156,0.1625,0.1697,0.1733,0.1756,0.1774,0.1809,0.1878,0.1808,0.1809,0.1805,0.1952,0.1818,0.1815,0.1896,0.1898,0.19,0.1918,0,0.1131,0.1189,0.1224,0.1276,0.1309,0.1363,0.1411,0.1481,0.1546,0.1613,0.1676,0.1746,0.1757,0.1799,0.1842,0.1885,0.1908,0.1872,0.1902,0.1902,0.1774,0.1823,0.1907,0.1924,0.1926,0.1928,0.1929,0,0.1148,0.1192,0.1244,0.1304,0.1325,0.1364,0.1455,0.1506,0.1609,0.1666,0.1751,0.1799,0.1888,0.1876,0.1971,0.1953,0.1962,0.1971,0.1972,0.1839,0.1786,0.1861,0.1945,0.1943,0.1942,0.1941,0.194,0,0.1125,0.12,0.1241,0.1263,0.1341,0.1383,0.1436,0.1535,0.1587,0.171,0.1763,0.1867,0.1933,0.198,0.2027,0.2013,0.2101,0.2077,0.195,0.1939,0.2031,0.2021,0.2121,0.2121,0.2121,0.2121,0.2121,0,0.1116,0.1152,0.1236,0.1254,0.1308,0.138,0.1458,0.1517,0.1626,0.1686,0.1794,0.185,0.197,0.2031,0.2049,0.2033,0.2125,0.1963,0.1944,0.2047,0.2039,0.2036,0.2026,0.2121,0.2121,0.2121,0.2121,0,0.1065,0.1122,0.1166,0.126,0.1291,0.1331,0.1447,0.1496,0.1615,0.1694,0.1737,0.1872,0.1957,0.2027,0.2106,0.2047,0.2048,0.2008,0.2106,0.2091,0.1844,0.1837,0.1861,0.1856,0.1853,0.185,0.1847,0,0.1037,0.1057,0.1149,0.1162,0.1203,0.1289,0.1339,0.1475,0.1529,0.1685,0.1704,0.1831,0.1906,0.1917,0.1998,0.2007,0.1978,0.1946,0.1899,0.1843,0.1823,0.1821,0.1819,0.1841,0.184,0.1839,0.1838,0,0.097,0.1011,0.1041,0.1079,0.1127,0.1191,0.1281,0.1318,0.147,0.158,0.1649,0.1694,0.1775,0.1844,0.1866,0.1865,0.1957,0.1906,0.1913,0.1869,0.182,0.1803,0.1805,0.1826,0.1827,0.1829,0.1829,0,0.0912,0.0914,0.095,0.0978,0.1022,0.1067,0.1146,0.1227,0.131,0.1486,0.1508,0.1642,0.1769,0.1768,0.1791,0.1787,0.1748,0.1671,0.1689,0.1704,0.1643,0.1557,0.1472,0,0,0,0,0,0.0851,0.0842,0.0843,0.087,0.0909,0.096,0.1078,0.1171,0.133,0.1336,0.1424,0.1493,0.1544,0.1617,0.158,0.1694,0.174,0.1638,0.1657,0.1755,0.177,0.1712,0,0,0,0,0,0,0.0802,0.0801,0.0811,0.0774,0.0781,0.0842,0.0929,0.1046,0.1077,0.1231,0.1285,0.1378,0.1468,0.1553,0.1545,0.156,0.1534,0.1718,0.1713,0.1746,0.176,0.1772,0.1718,0,0,0,0,0]},{"header":{"parameterUnit":"m.s-1","parameterCategory":2,"la1":30.2991,"la2":30.254,"lo1":-89.0895,"lo2":-89.0444,"dy":0.0017,"dx":0.0017,"nx":28,"ny":28,"refTime":"2024-09-02T21:00:00:Z","depth":"4","parameterNumber":3,"parameterNumberName":"V-component_of_CURRENTS"},"data":[0,0,0,0,0,0,0,0,0,0,0,0,0,0,0,0,0,0,0,0,0,0,0,0,0,0,0,0,0,0,0,0,0,0,0,0,0,0,0,0,0,0,0,0,0,0,0,0,0,0,0,0,0,0,0,0,0,0,0.0084,0.0084,0,0.0062,0.0061,0.0061,0.0043,0.0043,0.0043,0.0043,-0.0009,-0.0011,-0.0012,0,0,0,0,0,0,0,0,0,0,0,0,0,0.0089,0.0089,0.0084,0.0084,0.0084,0.0062,0.0061,0.0061,0.0043,0.0043,0.0043,0.0043,-0.0009,-0.001,-0.0012,0,0,0,0,0,0,0,0,0,0,0,0,0,0.0077,0.0089,0.0084,0.0074,0.0073,0.0062,0.0061,0.006,0.0043,0.0043,0.0043,0.0043,-0.0008,-0.001,-0.0012,-0.0026,0,0,-0.0019,-0.002,0,0,0,0,0,0,0,0,0.0078,0.0077,0.0076,0.0075,0.0074,0.0057,0.0044,0.0031,0.0043,0.0052,0.0043,0.0043,0.0012,0.0008,0.0001,-0.0029,-0.0031,-0.0019,-0.002,-0.0021,-0.0022,0,0,0,0,0,0,0,0.0079,0.0077,0.0073,0.0076,0.0075,0.0063,0.0061,0.0041,0.003,0.0051,0.0051,0.0052,0.0011,0.0003,-0.0001,-0.0032,-0.0019,-0.0021,-0.0022,-0.0023,-0.0081,-0.0081,0,0,0,0,0,0,0.0087,0.0078,0.0074,0.0073,0.0078,0.0063,0.0061,0.0061,0.0031,0.0027,0.0052,0.0051,0.0007,0.0002,-0.0003,-0.0019,-0.0021,-0.0023,-0.0025,-0.008,-0.0081,-0.0081,0,0,0,0,0,0,0.0087,0.0087,0.0075,0.0077,0.0075,0.0064,0.0063,0.006,0.0054,0.0031,0.0027,0.0049,0.0006,0.0,-0.0021,-0.0021,-0.0024,-0.0026,-0.008,-0.008,-0.0081,-0.0052,0,0,0,0,0,0,0.0087,0.0087,0.0086,0.0077,0.0075,0.0072,0.0063,0.006,0.0056,0.0055,0.0027,0.0023,0.0006,-0.0018,-0.0024,-0.0024,-0.0028,-0.008,-0.008,-0.0081,-0.0053,-0.0052,-0.005,0,0,0,0,0,0.0087,0.0092,0.0086,0.0085,0.0075,0.0072,0.0069,0.006,0.0056,0.0054,0.0034,0.0024,-0.0025,-0.002,-0.0026,-0.0027,-0.0079,-0.008,-0.0081,-0.0053,-0.0052,-0.005,0,0,0,0,0,0,0.0097,0.009,0.0084,0.0086,0.008,0.007,0.007,0.0062,0.0045,0.0042,0.0019,0.0012,-0.0007,-0.0023,-0.0017,-0.0046,-0.0053,-0.0055,-0.0031,-0.0029,-0.0028,-0.0013,-0.003,0,0,0,0,0,0.0098,0.0096,0.009,0.0091,0.0091,0.0079,0.0076,0.0069,0.0055,0.0048,0.003,0.0008,-0.0015,-0.0025,-0.0047,-0.0063,-0.008,-0.0068,-0.0067,-0.0066,-0.0059,-0.0084,-0.0084,-0.0083,-0.0083,-0.0083,0,0,0.0103,0.0098,0.0098,0.0092,0.0087,0.009,0.0077,0.0075,0.0073,0.0044,0.0035,0.001,-0.0019,-0.0037,-0.0047,-0.0049,-0.0077,-0.0066,-0.0065,-0.0058,-0.0085,-0.0085,-0.0085,-0.0083,-0.0083,-0.0083,0,0,0.0115,0.0108,0.0113,0.011,0.0105,0.0097,0.0099,0.0089,0.008,0.0065,0.0043,0.0021,-0.0009,-0.0029,-0.0044,-0.005,-0.0071,-0.0058,-0.0038,-0.0063,-0.0063,-0.0064,-0.0091,-0.0094,-0.0056,-0.0056,-0.0056,0,0.0119,0.0126,0.0114,0.012,0.0124,0.0104,0.0115,0.0101,0.0083,0.0077,0.0067,0.0021,-0.0005,-0.0027,-0.003,-0.0046,-0.0064,-0.004,-0.0061,-0.0061,-0.0062,-0.009,-0.0093,-0.0054,-0.0054,-0.0055,-0.0055,0,0.014,0.0144,0.0149,0.0149,0.0149,0.0155,0.0141,0.0133,0.0119,0.0104,0.008,0.0043,0.0019,0.0003,-0.0016,-0.0034,-0.0047,-0.0056,-0.0061,-0.006,-0.009,-0.0094,-0.0052,-0.0053,-0.0053,-0.0054,0,0,0.0155,0.0161,0.0164,0.0175,0.0167,0.0174,0.0166,0.0158,0.0158,0.0127,0.0124,0.0077,0.0059,0.0041,0.0012,-0.0013,-0.004,-0.0033,-0.0035,-0.0053,-0.0097,-0.0101,-0.0107,-0.0052,-0.0052,-0.0053,-0.0117,0,0.0176,0.0198,0.0194,0.0217,0.023,0.0214,0.0215,0.0201,0.018,0.0169,0.0124,0.0109,0.0073,0.0065,0.0032,-0.0018,-0.0048,-0.0021,-0.01,-0.0102,-0.0101,-0.0111,-0.0054,-0.012,-0.0121,-0.0122,-0.0123,0,0.0201,0.0213,0.0242,0.0259,0.0266,0.0275,0.0278,0.0278,0.0248,0.0232,0.02,0.0164,0.0123,0.0094,0.0007,0.0027,-0.0031,-0.0075,-0.0078,-0.0093,-0.0114,-0.0121,-0.013,-0.013,-0.0129,-0.0129,-0.0128,0,0.0227,0.025,0.0277,0.0284,0.0297,0.0308,0.0316,0.0298,0.0311,0.0277,0.0275,0.0211,0.019,0.011,0.0014,0.0012,-0.0084,-0.0099,-0.0161,-0.0163,-0.0151,-0.015,-0.0162,-0.0162,-0.0162,-0.0162,-0.0162,0,0.0252,0.0275,0.0296,0.0312,0.0356,0.035,0.0387,0.0377,0.0375,0.0393,0.032,0.0311,0.0195,0.0122,0.0029,-0.0077,-0.0075,-0.0158,-0.0178,-0.0139,-0.0136,-0.0154,-0.0152,-0.0164,-0.0164,-0.0163,-0.0163,0,0.0275,0.0286,0.0325,0.0353,0.0371,0.0406,0.0453,0.0475,0.046,0.0479,0.0475,0.0393,0.0291,0.0164,0.003,-0.0048,-0.0154,-0.0195,-0.0144,-0.016,-0.0222,-0.0218,-0.0268,-0.0269,-0.0269,-0.027,-0.027,0,0.0288,0.0311,0.0366,0.0403,0.042,0.0473,0.0513,0.0523,0.0545,0.0529,0.0538,0.0446,0.0373,0.0184,0.0042,-0.0144,-0.0172,-0.0228,-0.0229,-0.0217,-0.0232,-0.0228,-0.0223,-0.0271,-0.0271,-0.0271,-0.0272,0,0.0317,0.0339,0.037,0.0448,0.0502,0.0566,0.0614,0.0639,0.0647,0.0634,0.0594,0.0482,0.0361,0.0195,0.0045,-0.0087,-0.0191,-0.0235,-0.0235,-0.0236,-0.0222,-0.0235,-0.023,-0.0274,-0.0273,-0.0273,-0.0273,0,0.0344,0.0371,0.042,0.0488,0.0565,0.0633,0.0656,0.0679,0.0703,0.067,0.0658,0.0516,0.0432,0.0224,0.0091,-0.0046,-0.0084,-0.0124,-0.0131,-0.013,-0.0076,-0.0038,-0.0049,0,0,0,0,0,0.0364,0.0394,0.0458,0.0531,0.061,0.0655,0.0715,0.0726,0.0729,0.0713,0.0687,0.0571,0.0361,0.0267,0.013,0.0069,-0.0113,-0.0096,-0.0164,-0.0285,-0.0282,-0.0243,0,0,0,0,0,0,0.0377,0.0431,0.0456,0.056,0.0616,0.0705,0.0745,0.0746,0.073,0.0709,0.06,0.0537,0.0333,0.0441,0.0128,0.0084,0.0022,-0.0198,-0.0201,-0.0286,-0.0284,-0.0282,-0.0241,0,0,0,0,0]}]]